Location: Bukovany
(49.8234°N, 14.6297°E)
Time: 16:55:25
(UTC+00:00)

Cosmos 2058 - Pass Details

Date: 17 November 2025
Orbit: 529 x 540 km, 82.5° (Epoch: 08 December)

Event Time Altitude Azimuth Distance (km) Brightness Sun altitude
Rises 16:00:47 0° 1° (N) 2,705 6.1 -7.5°
Reaches altitude 10° 16:03:21 10° 17° (NNE) 1,811 5.1 -7.8°
Maximum altitude 16:06:27 22° 68° (ENE) 1,234 4.0 -8.3°
Drops below altitude 10° 16:09:33 10° 120° (ESE) 1,804 5.1 -8.8°
Sets 16:12:05 0° 136° (SE) 2,692 6.1 -9.2°
